{"data":{"norad_id":57417,"epoch":"2026-05-25T02:09:04.228128Z","epoch_age_seconds":64320,"freshness":"FRESH","line1":"1 57417U 23102P   26145.08963227  .00002654  00000+0  10589-3 0  9999","line2":"2 57417  43.0021 177.1631 0001533 267.2539  92.8137 15.27589690157924","mean_motion":15.2758969,"eccentricity":0.0001533,"inclination_deg":43.0021,"raan_deg":177.1631,"arg_perigee_deg":267.2539,"mean_anomaly_deg":92.8137,"bstar":0.00010589,"rev_number":15792,"period_min":94.266150748896,"perigee_km":481.96826546658,"apogee_km":484.07189622757,"semimajor_km":6861.1570808471,"source":"CELESTRAK","updated_at":"2026-05-25T13:38:18.318572Z"}}